RH
3 3 3 3 3 3 3 3 3 3 3 3 3 3 3 3 3 3 3 4 4 4 4 4 4 4 4 4 3 3 3 3 2 2 2 2 2 2 2 2 2 2 2 2 2 2 2 2 2 2 2 2 2 2 2 2 2 2 2 2 2 2 2 4 7 11 15 15 14 12 12 16 22 28 34 42 48 51 51 51 53 57 62 66 69 70 70 68 66 62 59 57 56 55 55 58 60 63 64 62 61 61 62
3 3 3 3 3 3 3 3 3 3 3 3 3 3 3 3 3 3 3 3 4 4 4 4 4 4 4 4 4 4 4 3 3 3 2 2 2 2 2 2 2 2 2 2 2 2 2 2 2 2 2 2 2 2 2 2 2 2 2 2 2 2 2 2 5 8 13 15 14 13 12 12 17 23 30 38 45 50 52 52 52 54 56 60 64 66 68 69 68 66 63 62 60 58 57 58 59 61 63 62 61 61 62
3 3 3 3 3 3 3 3 3 3 3 3 3 3 3 3 3 3 3 3 3 4 4 4 4 4 4 4 4 4 4 4 4 3 3 2 2 2 2 2 2 2 2 2 2 2 2 2 2 2 2 2 2 2 2 2 2 2 2 2 2 2 2 2 4 8 12 14 16 16 16 14 15 19 26 35 44 50 54 54 54 54 54 56 58 61 64 66 67 67 66 65 64 63 61 60 60 61 62 62 61 60 62
4 4 4 4 4 4 4 4 3 3 3 3 3 3 3 3 3 3 3 3 3 3 3 4 4 4 4 4 4 4 4 4 4 4 4 3 3 2 2 2 2 2 2 2 2 2 2 2 2 2 2 2 2 2 3 3 3 3 3 3 2 2 2 2 4 7 10 14 16 18 20 19 18 18 23 31 40 49 55 58 59 58 57 56 57 58 60 64 66 66 66 67 68 67 66 64 62 62 63 62 62 61 61
4 4 4 4 4 4 4 4 4 4 4 4 4 3 3 3 3 3 3 3 3 3 3 3 4 4 4 4 4 4 4 4 4 4 4 4 3 3 2 2 2 2 2 2 2 2 2 2 2 2 2 2 2 2 3 3 3 3 3 3 3 3 3 2 4 6 9 12 15 18 21 22 22 21 22 28 34 42 51 58 61 63 62 60 59 59 60 62 64 66 68 68 70 70 70 69 67 66 65 64 63 62 61
4 4 4 4 4 4 4 4 4 4 4 4 4 4 4 3 3 3 3 3 3 3 3 3 3 3 4 4 4 4 4 4 4 4 4 4 4 3 3 3 2 2 2 2 2 2 2 2 2 2 2 2 2 2 2 3 3 3 3 3 3 3 3 3 4 6 9 11 14 17 20 22 23 24 24 26 30 36 42 52 58 62 64 64 63 62 62 64 65 67 69 70 72 74 74 73 72 70 69 68 66 64 62
4 4 4 4 4 4 4 4 4 4 4 4 4 4 4 4 3 3 3 3 3 3 3 3 3 3 3 3 4 4 4 4 4 4 4 4 4 4 4 3 3 2 2 2 2 2 2 2 2 2 2 2 2 2 2 2 3 3 3 3 3 3 3 3 3 4 7 11 14 17 20 21 22 23 23 26 29 32 36 44 52 58 61 63 65 66 66 66 68 69 71 73 74 76 77 76 76 74 74 72 69 66 63
4 4 4 4 4 4 4 4 4 4 4 4 4 4 4 4 3 3 3 3 3 3 3 3 4 3 3 3 3 3 4 4 4 4 4 4 4 4 4 4 3 3 2 2 2 2 2 2 2 2 2 2 2 2 2 2 2 2 3 3 3 4 4 4 3 3 4 10 14 16 17 20 23 25 26 28 30 33 36 40 46 52 57 60 64 66 68 69 70 72 74 76 77 79 80 80 79 78 77 75 72 69 65
5 5 5 5 5 4 4 4 4 4 4 4 4 4 4 4 3 3 3 3 3 3 3 3 4 4 4 3 3 3 3 3 4 4 4 4 4 4 4 4 4 3 3 3 2 2 2 2 2 2 2 2 2 2 2 2 2 2 2 3 3 3 4 4 4 4 4 8 11 12 10 14 20 26 29 30 32 35 38 42 46 51 56 62 66 68 70 71 72 74 76 78 80 81 82 82 82 82 80 78 74 72 68
5 5 5 5 5 5 5 4 4 4 4 4 4 4 4 4 3 3 3 3 3 3 3 3 3 4 4 4 3 3 3 3 3 3 3 4 4 4 4 4 4 4 4 3 3 2 2 2 2 2 2 2 2 2 2 2 2 2 2 2 3 3 3 4 4 4 4 4 6 8 6 8 13 20 26 30 32 36 39 43 48 53 59 68 72 74 72 72 73 76 78 80 82 83 83 83 84 84 84 80 77 74 70
5 5 5 5 5 5 5 4 4 4 4 4 4 4 4 4 4 3 3 3 3 3 3 3 3 3 4 4 4 3 3 3 3 3 3 4 4 4 4 4 4 4 4 4 3 3 3 2 2 2 2 2 2 2 2 2 2 2 2 2 3 3 3 3 4 4 4 4 4 5 6 7 9 13 20 26 31 34 38 42 48 54 62 73 78 78 75 73 73 75 78 80 82 83 83 82 84 84 85 82 80 76 72
6 6 5 5 5 5 5 5 4 4 4 4 4 4 4 4 4 3 3 3 3 3 3 3 3 3 4 4 4 4 3 3 3 3 3 4 4 4 4 4 4 4 4 4 4 3 3 3 2 2 2 2 2 2 2 2 2 3 3 3 3 3 3 3 3 4 4 4 4 4 6 9 10 10 15 22 28 32 36 40 44 51 61 71 76 76 74 70 70 71 74 77 79 80 81 80 82 84 84 84 82 78 75
6 6 6 5 5 5 5 5 4 4 4 4 4 4 4 4 4 4 4 3 3 3 3 3 3 3 3 4 4 4 4 3 3 3 3 4 4 4 4 4 4 4 4 4 4 4 4 3 3 2 2 2 2 2 2 2 2 3 3 3 3 3 3 3 3 3 4 4 4 4 4 8 11 13 13 18 24 29 33 36 40 46 55 62 68 71 68 64 62 62 65 69 72 74 76 76 78 81 83 84 83 81 78
6 6 6 6 5 5 5 5 5 4 4 4 4 4 4 4 4 4 4 4 4 3 3 3 3 4 4 4 4 4 4 4 3 3 3 3 4 4 4 4 4 4 4 4 4 4 4 4 3 3 3 2 2 2 2 2 2 3 3 3 3 3 3 3 3 3 3 4 4 4 4 7 11 15 15 16 20 25 29 32 36 40 47 52 58 62 61 58 55 54 55 57 60 63 66 68 72 76 80 82 84 83 81
6 6 6 6 6 5 5 5 5 5 4 4 4 4 4 4 4 4 4 4 4 4 4 4 4 4 4 4 4 4 4 4 4 3 3 3 3 4 4 4 4 4 4 4 4 4 4 4 4 3 3 3 3 2 2 2 2 3 3 3 3 3 3 3 3 3 3 3 4 4 4 5 8 14 18 18 19 21 24 28 32 37 42 47 51 54 55 53 52 50 49 48 49 51 55 59 64 70 76 80 83 84 84
6 6 6 6 6 5 5 5 5 5 5 4 4 4 4 4 4 4 4 4 4 4 4 4 4 4 4 4 4 4 4 4 4 4 3 3 3 3 4 4 4 4 4 4 4 4 4 4 4 4 4 3 3 3 2 2 2 3 3 3 3 3 3 3 3 3 3 3 4 4 4 4 6 10 16 19 20 20 21 24 30 35 41 45 48 50 50 50 51 51 50 47 45 44 46 50 56 63 70 77 81 84 86
6 6 6 6 6 6 5 5 5 5 5 4 4 4 4 4 4 4 4 4 4 4 4 4 4 4 4 4 4 4 4 4 4 4 4 3 3 3 3 4 4 4 4 4 4 4 4 4 4 4 4 4 3 3 3 3 3 3 3 3 3 4 4 4 4 4 4 4 4 4 4 4 4 7 13 18 21 22 22 24 28 34 39 44 48 49 49 50 51 51 50 50 48 46 45 47 51 58 67 74 80 84 86
6 6 6 6 6 6 5 5 5 5 5 5 4 4 4 4 4 4 4 4 4 4 4 4 4 4 4 4 4 4 4 4 4 4 4 4 3 3 3 3 4 4 4 4 4 4 4 4 4 4 4 4 4 4 3 3 3 3 3 3 3 4 4 4 4 4 4 4 4 4 4 4 4 5 8 15 20 22 23 26 28 32 36 42 46 50 49 50 51 52 52 53 52 52 50 51 54 60 69 76 80 84 86
6 6 6 6 6 6 6 5 5 5 5 5 5 4 4 4 4 4 4 4 4 4 4 4 4 4 4 4 4 4 4 4 4 4 4 4 4 4 3 3 3 4 4 4 4 4 5 5 4 4 4 4 4 4 4 3 3 3 3 3 3 4 4 4 4 4 4 4 4 4 4 4 4 4 4 10 16 21 24 26 28 31 34 38 44 48 49 49 50 53 54 56 56 56 55 57 62 68 77 80 82 84 86
6 6 6 6 6 6 6 5 5 5 5 5 5 5 4 4 4 4 4 4 4 4 4 4 4 5 5 5 4 4 4 4 4 4 4 4 4 4 3 3 3 3 4 4 4 4 5 5 5 5 4 4 4 4 4 4 4 3 3 3 3 3 4 4 4 4 4 4 4 4 4 4 4 4 4 6 11 17 22 25 28 30 32 36 40 45 47 46 49 52 55 58 60 60 57 60 68 78 86 86 84 84 85
6 6 6 6 6 6 6 6 5 5 5 5 5 5 5 5 5 5 5 5 5 5 5 5 5 5 5 5 5 5 4 4 4 4 4 4 4 4 4 3 3 3 3 4 4 4 4 5 5 5 5 5 4 4 4 4 4 4 4 4 3 4 4 4 4 4 4 4 4 4 4 4 4 4 4 4 6 11 18 23 27 30 32 34 38 42 45 45 48 52 56 59 62 63 60 60 70 82 90 88 86 84 84
6 6 6 6 6 6 6 6 6 6 5 5 5 5 5 5 5 5 5 5 5 5 5 5 5 5 5 5 5 5 5 4 4 4 4 4 4 4 4 4 3 3 3 3 4 4 4 4 5 5 5 5 5 4 4 4 4 4 4 4 4 4 4 4 4 4 4 4 4 4 4 4 4 4 4 4 4 7 12 19 25 29 32 34 37 40 44 46 49 53 58 62 64 65 62 60 67 78 88 88 87 85 83
7 6 6 6 6 6 6 6 6 6 6 6 6 6 6 6 6 6 6 6 6 6 6 6 5 5 5 5 5 5 5 4 4 4 4 4 4 4 4 4 4 3 3 3 3 4 4 4 4 5 5 5 5 5 5 4 4 4 4 4 4 4 4 4 4 4 4 4 4 4 4 4 4 4 4 4 4 4 7 14 20 27 32 35 38 41 45 49 53 57 60 62 64 66 65 62 64 71 81 84 85 84 83
7 7 7 6 6 6 6 6 6 6 6 6 6 6 6 6 6 6 6 6 6 6 6 6 6 6 5 5 5 5 5 4 4 4 4 4 4 4 4 4 4 4 4 4 4 4 4 4 4 4 5 5 5 5 5 5 4 4 4 4 4 4 4 4 4 4 4 4 4 4 4 4 4 4 4 4 4 4 4 8 16 23 30 34 38 41 46 52 59 64 63 63 65 67 68 65 64 64 69 76 81 84 84
7 7 7 7 7 6 6 6 6 6 6 6 6 6 6 6 6 6 6 6 6 6 6 6 6 6 6 5 5 5 5 4 4 4 4 4 4 4 4 4 4 4 4 4 4 4 4 4 4 4 4 5 5 5 5 5 5 4 4 4 4 4 4 4 4 4 4 4 4 4 4 4 4 4 4 5 5 4 3 6 10 18 26 32 37 42 46 51 63 72 69 65 66 68 70 67 64 63 68 78 85 88 88
8 8 7 7 7 7 7 7 7 7 7 7 7 7 7 7 7 7 7 7 7 6 6 6 6 6 6 5 5 5 5 4 4 4 4 4 4 4 4 4 4 4 4 4 4 4 4 4 4 4 4 4 5 5 5 5 4 4 4 4 4 4 4 4 4 5 5 4 4 5 5 4 4 4 5 5 6 7 8 8 9 13 20 28 35 40 45 50 60 71 76 70 68 69 71 68 65 67 77 85 87 88 88
8 8 8 8 8 8 8 8 8 8 8 8 8 8 8 8 7 7 7 7 7 6 6 6 6 6 5 5 5 5 4 4 4 4 4 4 4 4 4 4 4 4 4 4 4 4 4 4 4 4 4 4 4 5 5 5 4 4 4 4 4 4 4 4 5 5 5 5 5 5 5 5 5 5 5 5 6 8 12 14 12 11 15 23 31 38 44 48 53 62 74 73 72 71 71 68 69 74 84 87 88 87 86
8 8 8 8 8 8 8 8 8 8 8 8 8 8 8 8 8 7 7 7 7 6 6 6 6 5 5 5 5 5 4 4 4 4 4 4 4 4 4 4 4 4 4 4 4 4 4 4 4 4 4 4 4 4 4 5 4 4 4 4 4 4 4 4 4 5 6 6 6 6 5 5 5 5 5 5 5 6 11 17 17 15 12 18 25 34 41 45 53 62 73 72 72 72 72 71 72 78 86 87 87 86 83
9 8 8 8 8 8 8 8 8 8 8 8 8 8 8 8 8 7 7 7 6 6 6 5 5 5 5 5 4 4 4 4 4 4 4 4 4 4 4 4 4 4 4 4 4 4 4 4 4 4 4 4 4 4 4 4 4 4 4 4 4 4 4 4 4 5 5 6 6 6 6 6 6 6 6 5 5 5 7 14 18 18 15 16 21 28 35 41 50 60 69 71 71 70 72 74 76 78 85 87 87 85 81
10 10 9 9 9 9 9 9 9 9 9 8 8 8 8 8 7 7 6 6 6 5 5 5 5 4 4 4 4 4 4 4 4 4 4 4 4 4 4 4 4 4 4 4 4 4 4 4 4 4 4 4 4 4 4 4 4 4 4 4 4 4 4 4 4 5 5 6 6 7 7 6 6 6 6 6 6 5 5 9 15 19 20 18 19 23 28 35 42 50 60 65 69 72 74 78 76 74 76 82 84 83 80
10 10 10 10 10 10 10 10 10 9 9 8 8 8 8 7 7 6 6 6 5 5 5 4 4 4 4 4 4 4 4 4 4 4 4 4 4 4 4 4 4 4 4 4 4 4 4 4 4 4 4 4 4 4 4 4 4 4 4 4 4 4 4 4 4 4 5 6 6 7 8 7 7 7 7 6 6 6 5 6 10 17 22 22 22 21 24 29 35 42 50 57 60 64 71 77 76 72 72 76 77 76 73
10 10 10 10 10 10 10 10 10 9 9 8 8 8 7 7 6 6 5 5 5 4 4 4 4 5 5 4 4 4 4 4 4 4 4 4 4 4 4 4 4 4 4 4 4 4 4 4 4 4 4 4 4 4 4 4 4 4 4 4 4 4 4 4 4 4 5 5 6 7 8 8 8 8 8 7 7 7 6 5 7 12 19 24 24 23 23 26 31 37 45 52 55 58 63 68 70 69 70 72 72 70 66
11 11 11 10 10 10 10 10 9 9 8 8 8 7 7 6 6 5 5 4 4 4 4 5 5 5 5 5 4 4 4 4 4 4 4 4 4 4 4 4 4 4 4 4 4 4 4 4 4 4 4 4 4 4 4 4 4 4 4 4 4 4 4 4 4 4 5 5 6 6 8 8 9 9 8 8 8 8 7 6 6 8 13 19 22 24 24 26 29 34 42 49 54 57 60 63 64 64 66 68 68 67 65
11 11 11 10 10 10 10 9 9 8 8 8 7 6 6 6 5 5 4 4 4 4 5 5 5 5 5 5 5 5 4 4 4 4 4 4 4 4 4 4 4 4 4 4 4 4 4 4 4 4 4 4 4 4 4 4 4 4 4 5 5 5 4 4 4 4 5 5 5 6 7 8 9 10 10 10 9 8 8 7 6 7 10 13 16 20 23 26 29 34 40 48 54 58 61 62 62 61 63 66 67 67 66
11 11 11 10 10 10 9 9 8 8 8 7 6 6 5 5 4 4 4 4 5 5 5 5 5 5 5 5 5 5 4 4 4 4 4 4 4 4 4 4 4 4 4 4 4 4 4 5 5 5 4 4 4 4 4 4 4 4 4 5 5 5 5 5 5 5 5 5 5 6 6 8 9 10 11 11 10 10 9 8 8 8 9 11 12 15 20 24 28 33 40 48 54 58 62 60 60 60 63 66 67 68 70
11 11 10 10 10 10 9 8 8 8 7 6 6 5 5 4 4 4 4 5 5 5 5 5 5 5 5 5 4 4 4 3 3 3 3 3 3 3 3 3 3 3 4 4 4 4 4 5 5 5 6 6 5 5 5 5 5 5 5 5 6 6 6 5 5 5 5 5 5 6 6 7 8 10 11 12 12 11 10 10 8 8 10 12 12 13 17 22 26 32 39 47 54 59 62 60 60 61 64 66 68 69 71
11 10 10 10 10 9 8 8 8 7 6 6 5 5 4 4 4 4 5 5 6 6 6 6 5 5 4 4 4 3 2 2 2 2 2 2 2 2 2 3 3 3 3 4 4 4 4 4 5 5 6 6 6 6 6 6 6 6 6 6 6 6 6 6 6 6 5 6 6 6 6 7 8 9 11 12 13 12 12 11 10 10 10 13 14 15 16 21 25 30 37 45 53 60 62 62 62 64 66 68 68 69 71
10 10 10 10 9 8 8 8 7 6 6 5 5 4 4 4 4 5 5 6 6 6 6 6 5 4 4 3 3 2 2 2 2 2 2 2 2 2 3 3 3 4 4 4 4 4 4 4 5 5 6 6 6 7 7 7 7 7 7 7 7 7 7 7 7 7 6 6 6 6 6 7 7 8 10 11 13 14 13 13 12 11 10 13 16 16 17 20 24 29 34 42 50 58 63 64 65 66 67 69 70 70 71
10 10 10 9 9 8 8 7 6 6 5 5 4 4 4 4 5 5 6 6 6 6 6 5 5 4 3 3 3 3 3 3 3 2 2 2 2 3 3 4 4 5 5 5 5 6 6 6 6 6 6 6 6 7 7 8 8 8 8 8 8 8 8 8 8 8 8 7 7 7 7 7 8 8 9 10 12 14 14 14 14 13 12 13 16 18 18 21 24 29 32 38 47 56 63 66 68 70 71 72 71 70 71
10 10 10 9 8 8 8 7 6 6 5 4 4 4 4 5 5 6 6 6 6 6 6 5 4 4 3 3 3 3 3 3 3 2 2 2 3 3 4 5 6 6 7 7 8 8 8 8 8 8 8 8 8 8 8 8 8 8 9 9 10 10 10 10 10 10 9 8 8 8 7 8 8 8 8 10 11 13 14 15 15 14 13 14 16 19 20 21 24 28 32 36 43 52 62 67 72 76 78 77 74 71 71
10 10 9 9 8 8 7 6 6 5 4 4 4 4 5 5 6 6 6 6 6 6 5 5 4 4 4 4 4 3 3 3 2 2 2 3 4 4 6 6 7 8 9 10 10 10 11 11 11 11 11 10 10 10 10 10 10 10 10 10 10 10 10 10 10 10 10 10 9 8 8 8 8 8 9 10 10 12 13 15 16 16 15 14 16 20 22 22 24 27 31 35 41 49 60 67 75 81 83 81 76 72 70
10 10 9 8 8 8 7 6 5 5 4 4 4 5 5 6 6 6 6 6 6 6 5 5 5 5 4 4 3 3 2 2 2 2 3 4 5 6 8 8 10 10 11 11 12 13 13 14 14 14 14 14 14 13 13 12 12 12 11 10 10 11 11 11 11 12 11 11 10 10 10 9 9 9 10 10 10 11 12 14 16 16 16 16 16 19 22 22 24 27 30 34 39 46 56 64 74 81 82 81 76 72 70
10 10 9 8 8 7 6 6 5 4 4 4 4 5 5 6 6 6 6 6 6 6 5 5 5 4 4 3 3 2 2 2 3 4 4 6 7 8 10 11 12 12 13 14 14 14 15 15 16 16 16 16 17 17 16 16 16 15 14 13 12 12 12 12 12 12 12 12 12 11 11 10 10 10 10 10 10 11 12 13 15 16 18 17 18 19 20 21 24 27 30 32 36 42 50 58 68 75 78 76 74 71 71
10 10 9 8 8 7 6 5 5 4 4 4 5 5 5 6 6 6 6 6 6 6 6 5 4 4 3 2 2 2 2 3 4 5 6 8 10 12 13 14 15 16 16 16 16 16 16 16 16 16 17 18 18 19 19 19 19 18 18 16 15 14 13 13 12 12 12 13 12 12 12 11 10 10 10 10 11 11 12 12 14 16 18 18 18 19 21 20 23 26 30 32 35 40 46 52 60 66 70 71 70 70 71
10 10 9 8 8 7 6 5 5 4 4 4 5 5 5 5 6 6 6 6 6 5 5 4 4 3 2 2 2 3 4 5 6 8 10 12 14 16 17 18 18 18 18 18 18 17 17 17 17 18 18 18 19 19 20 21 21 21 21 20 18 18 16 15 14 13 13 13 13 13 13 12 12 11 11 11 11 12 12 12 13 15 17 18 19 20 22 21 23 26 30 32 35 39 44 50 56 61 65 68 68 68 72
10 10 9 8 7 6 6 5 5 4 4 4 5 5 5 5 5 5 5 5 5 5 4 4 3 3 2 3 4 4 6 7 9 12 14 16 18 18 18 18 17 16 16 15 15 15 15 16 16 17 18 18 19 19 20 21 22 22 23 23 22 21 20 18 17 16 14 14 14 14 13 13 13 12 12 12 12 12 12 13 13 14 16 18 19 20 23 22 23 24 28 31 34 38 42 47 52 58 63 66 66 68 72
10 10 9 8 7 6 6 5 5 4 4 4 5 5 5 5 5 5 5 5 5 4 4 3 2 2 3 4 5 7 8 11 13 16 18 18 18 16 15 14 12 11 10 10 10 10 10 11 12 13 15 16 17 18 19 20 21 22 23 24 24 24 23 22 20 18 17 16 15 14 14 14 14 14 13 13 13 13 13 13 14 14 15 17 18 21 24 24 23 23 24 29 33 37 39 43 50 57 63 62 64 69 74
10 10 9 8 7 6 6 5 5 4 4 4 4 4 5 5 5 5 5 4 4 4 3 3 2 2 4 6 8 10 12 15 16 18 17 15 13 12 10 10 10 9 9 9 8 8 8 9 9 10 10 12 14 16 17 19 20 21 22 24 24 25 25 24 24 22 20 18 17 16 15 15 14 14 14 14 14 14 14 14 14 14 15 16 18 20 24 25 24 22 22 26 32 35 37 40 48 56 62 60 62 68 76
10 10 9 8 7 6 6 5 5 4 4 4 4 4 4 4 4 4 4 4 4 4 3 2 2 4 6 8 11 13 16 17 16 15 12 11 10 10 10 11 12 12 12 13 13 12 12 12 11 10 10 10 11 12 14 16 18 20 22 23 24 24 26 26 26 25 24 22 20 18 17 16 16 15 15 14 14 14 15 15 15 15 15 16 17 20 24 26 25 24 22 26 30 34 36 39 43 50 58 58 62 68 77
11 10 9 8 7 6 6 5 5 4 4 4 4 4 4 4 4 4 4 4 4 3 2 2 3 5 8 12 15 16 18 16 13 11 9 10 10 12 14 15 16 17 18 18 18 18 18 17 17 16 16 14 13 12 12 14 16 18 20 22 23 24 24 26 26 26 26 24 23 21 19 18 17 16 16 15 15 15 15 16 16 16 16 16 17 19 22 25 25 24 23 26 30 33 35 38 42 48 53 56 61 68 78
11 10 9 8 8 7 6 5 5 4 4 4 4 4 4 4 4 4 4 4 4 3 2 3 4 6 10 15 18 18 15 12 10 9 10 12 14 16 18 18 20 21 22 23 24 24 23 23 23 24 24 24 21 18 15 14 14 15 17 20 22 23 24 24 25 26 26 26 26 24 22 20 18 18 17 16 16 16 16 16 16 17 17 16 17 18 20 23 24 24 23 26 29 32 34 37 41 46 50 55 59 65 74
11 10 10 8 8 7 6 6 5 5 4 4 4 4 4 4 4 4 4 4 4 3 2 4 6 10 14 17 18 15 11 9 9 10 12 15 17 19 20 21 22 24 24 26 27 28 28 28 28 28 30 30 30 28 24 19 15 13 13 15 18 21 23 23 24 24 25 26 27 26 24 22 20 19 18 17 16 16 16 16 17 18 18 17 17 18 20 22 23 23 23 24 27 30 32 35 39 44 48 52 56 60 66
12 11 10 8 8 7 6 6 5 5 4 4 4 4 4 4 4 4 4 4 3 3 2 4 8 13 18 18 16 12 8 9 10 12 15 18 20 22 24 25 26 26 28 29 30 32 33 34 35 36 35 35 35 35 36 33 28 22 16 14 14 16 19 21 22 23 23 25 26 28 27 25 23 21 20 18 18 17 16 17 17 18 18 18 18 19 22 24 24 23 23 24 25 27 30 33 37 41 44 48 52 56 60
12 11 10 9 8 7 6 6 6 5 5 4 4 4 4 4 5 5 4 4 3 3 3 6 10 15 20 17 13 10 9 10 11 14 16 20 24 27 30 32 33 34 34 34 35 36 38 40 42 44 45 42 41 40 42 43 43 39 30 20 14 13 15 18 19 21 22 23 25 27 29 27 25 23 21 20 19 18 17 17 17 18 18 18 18 19 22 24 24 24 24 24 24 26 28 32 36 39 41 43 47 52 56
12 11 10 10 8 8 7 6 6 5 5 5 4 4 4 5 5 5 5 4 3 3 4 8 13 18 20 15 11 9 10 12 14 16 19 24 28 33 38 42 44 46 45 45 45 46 49 53 54 54 54 51 48 46 46 46 49 50 49 40 28 17 12 14 16 18 20 21 23 26 29 29 28 25 23 21 20 19 18 17 17 18 18 19 19 19 20 21 22 24 24 24 24 24 24 29 32 35 37 40 44 48 53
12 12 11 10 9 8 7 7 6 6 5 5 5 4 4 5 5 5 5 4 3 3 5 10 16 19 18 13 10 10 12 14 16 18 22 27 32 37 42 46 51 55 58 59 60 60 62 66 66 65 60 55 51 49 48 47 48 50 54 54 48 36 21 15 14 16 17 18 20 23 27 30 30 27 24 22 21 20 18 18 17 18 18 18 19 19 20 20 22 23 24 24 23 22 20 20 24 28 32 36 42 46 50
13 12 11 10 9 8 8 7 6 6 6 5 5 5 5 5 5 5 5 4 3 4 6 12 18 20 18 12 11 12 14 16 18 21 24 29 34 38 42 44 48 54 62 68 71 72 73 73 73 71 63 54 49 47 45 44 42 43 45 51 53 50 40 26 18 14 16 16 18 21 25 30 31 30 26 24 22 20 19 18 17 17 18 18 19 19 20 20 22 23 24 24 23 20 16 14 16 21 28 34 40 44 47
13 12 12 10 10 9 8 8 7 6 6 6 5 5 5 5 5 5 5 4 3 4 7 14 19 21 18 12 12 13 15 18 20 23 26 30 33 36 39 39 41 47 58 68 73 76 78 77 76 73 64 52 47 46 44 42 39 36 34 40 46 52 51 39 27 18 16 16 17 19 23 29 32 32 28 26 23 21 20 18 17 17 17 18 18 19 20 22 24 25 26 26 24 20 16 12 13 18 28 34 39 42 45
14 13 12 11 10 9 8 8 7 7 6 6 5 5 5 5 5 5 5 4 4 5 8 15 20 23 19 13 12 14 16 18 21 24 28 30 32 34 36 34 36 43 56 64 68 73 78 80 79 74 64 51 46 48 52 50 45 39 33 31 34 40 48 45 36 25 18 17 17 18 22 28 32 33 31 27 24 22 20 19 18 16 16 18 18 19 22 26 29 30 30 28 24 20 16 12 13 17 26 31 35 40 43
14 13 12 11 10 10 9 8 8 7 7 6 6 5 5 5 6 6 5 4 4 5 9 16 22 24 21 15 12 13 16 18 22 24 27 30 32 32 33 30 33 42 57 61 62 64 72 78 80 78 70 53 44 44 54 56 54 49 45 39 34 32 35 39 36 30 22 19 18 19 22 28 32 34 32 29 26 23 21 19 18 16 16 17 18 19 22 29 34 36 35 30 26 22 17 13 14 18 23 26 30 35 40
14 14 13 12 11 10 10 9 8 8 7 6 6 5 5 5 6 6 5 4 4 6 10 17 23 27 24 17 13 12 14 18 20 23 26 28 30 30 30 27 31 41 58 60 58 56 61 71 77 78 73 55 43 40 48 55 58 58 58 57 54 48 38 36 35 32 25 21 20 20 23 28 33 35 34 30 27 24 22 20 18 17 16 16 17 18 20 26 32 37 38 33 28 23 18 15 16 20 23 24 27 32 40
Wind_Speed
30 30 30 30 31 31 31 31 31 31 30 30 30 29 29 29 29 29 29 29 30 31 31 31 32 32 32 33 33 34 34 35 34 34 34 34 34 34 35 36 37 38 39 40 42 43 45 46 47 47 47 47 46 46 46 46 46 46 47 47 47 47 47 47 46 45 45 44 44 44 44 43 44 44 45 45 45 46 46 45 44 44 44 44 44 44 44 44 44 44 43 43 42 41 40 39 39 39 39 39 38 38 38
31 31 31 31 31 32 32 32 32 32 32 32 31 31 31 30 30 30 30 30 30 31 31 31 32 32 32 33 33 34 34 35 35 35 35 34 34 34 34 35 36 37 37 38 40 41 43 44 45 46 47 47 47 46 46 45 45 45 46 46 47 47 47 47 47 46 46 45 45 45 45 45 45 45 45 45 46 46 46 45 45 44 44 45 45 45 45 44 44 44 44 43 43 42 41 40 39 39 39 39 39 39 39
31 31 31 32 32 33 33 33 33 33 33 33 33 32 32 32 32 31 31 31 31 31 31 31 32 32 33 33 33 34 34 35 35 35 35 35 35 35 35 35 35 36 37 37 38 39 41 42 43 44 45 46 46 46 46 46 45 45 45 45 46 46 47 47 47 47 47 46 46 46 46 46 46 46 46 46 46 46 46 45 45 45 45 45 46 46 45 45 45 44 44 44 44 43 42 41 40 40 40 40 40 40 40
32 32 32 32 33 33 33 33 34 34 34 34 34 34 34 34 33 33 33 32 32 32 32 32 32 33 33 33 34 34 34 35 35 35 36 36 36 35 35 35 35 36 36 37 37 38 39 40 41 42 43 44 45 46 46 46 46 45 45 45 45 45 46 46 47 47 47 47 47 46 46 46 46 46 46 46 46 46 46 45 44 44 44 45 46 46 46 46 45 45 45 44 44 44 43 42 42 41 41 41 41 41 41
32 32 32 33 33 33 34 34 34 34 34 34 35 35 35 35 35 35 34 34 34 33 33 33 33 33 33 34 34 34 35 35 35 35 36 36 36 36 36 36 36 36 36 37 37 38 38 39 39 40 41 42 43 44 45 46 46 46 46 45 45 44 45 45 46 47 48 48 48 47 47 46 46 46 47 47 47 47 46 45 44 43 44 44 45 46 46 46 46 45 45 45 45 44 44 44 43 43 43 43 43 42 42
33 33 33 33 34 34 34 34 34 34 35 35 35 36 36 36 36 36 36 36 35 35 35 34 34 34 34 34 34 35 35 35 36 36 36 36 37 37 37 37 36 36 37 37 37 38 38 38 39 39 39 40 41 42 44 45 45 46 46 46 45 45 44 44 45 46 47 48 48 48 48 47 47 47 47 48 48 48 47 46 44 43 43 44 45 45 46 46 46 46 45 45 45 45 45 45 45 45 45 45 44 44 43
34 34 34 34 34 34 35 35 35 35 35 35 36 36 37 37 38 38 38 38 37 37 36 36 35 35 35 35 35 35 36 36 36 36 37 37 37 37 37 37 37 37 37 37 37 38 38 38 38 38 39 39 39 40 41 43 44 45 46 46 46 45 45 44 44 45 46 48 48 49 48 48 48 48 48 49 49 49 48 47 45 44 44 44 44 45 45 46 46 46 45 45 45 45 45 45 46 46 46 46 46 45 44
34 34 34 34 35 35 35 35 36 36 36 36 37 37 38 38 39 39 40 39 39 39 38 37 37 37 36 36 36 36 36 37 37 37 37 37 38 38 38 38 38 38 38 38 38 38 38 39 38 38 38 38 38 39 39 40 42 43 44 45 45 46 46 45 44 44 45 47 48 49 49 49 48 49 49 49 50 50 49 48 46 45 44 44 45 45 45 46 46 46 45 45 45 45 45 45 46 46 47 47 47 46 46
35 35 35 35 35 36 36 36 37 37 37 37 37 38 38 39 40 40 41 41 41 41 40 39 39 38 38 37 37 37 37 37 37 38 38 38 38 38 39 39 39 38 38 38 38 39 39 39 39 39 39 38 38 38 38 39 40 40 42 43 44 45 45 46 45 45 45 46 47 48 49 49 49 49 49 49 50 50 49 48 47 46 45 45 45 45 45 46 46 46 45 45 45 45 45 45 45 46 47 48 48 48 47
35 35 35 36 36 36 37 37 37 38 38 38 39 39 39 40 41 41 42 42 43 42 42 41 41 40 39 39 38 38 38 38 38 38 38 38 39 39 39 39 39 39 39 39 39 39 39 40 39 39 39 39 39 38 38 38 39 39 40 41 42 43 44 45 45 45 45 45 46 47 48 49 49 50 50 50 50 50 50 49 48 47 46 45 45 45 45 45 46 46 45 45 45 45 45 44 44 45 46 47 48 49 48
35 36 36 36 37 37 38 38 38 39 39 39 40 40 40 41 41 42 43 43 44 44 44 43 43 42 41 40 40 39 39 39 39 39 39 39 39 39 40 40 40 40 40 40 40 40 40 40 40 40 40 40 39 39 39 39 39 39 39 39 40 41 42 43 44 45 45 45 46 46 47 48 49 50 50 50 50 50 50 50 49 48 47 46 45 45 46 46 46 46 46 46 45 45 45 44 44 45 46 47 48 49 50
36 36 37 37 38 38 38 39 39 40 40 40 41 41 41 42 42 43 43 44 44 44 45 44 44 44 43 42 41 41 40 40 40 40 40 40 40 40 40 40 41 41 41 41 41 41 41 41 41 41 41 40 40 40 40 40 39 39 39 39 39 39 40 41 42 44 45 45 46 46 46 47 48 50 51 51 51 51 51 50 50 49 48 47 47 47 46 47 47 47 46 46 46 46 45 45 44 44 45 47 48 49 50
37 37 38 38 38 39 39 40 40 40 41 41 42 42 42 43 43 43 44 44 44 45 45 45 45 45 44 43 43 42 41 41 41 40 40 40 40 40 41 41 41 41 41 42 42 41 41 41 41 41 41 41 41 41 41 41 40 40 40 40 39 39 39 39 40 42 43 44 45 46 46 47 48 49 50 51 52 52 52 51 51 51 50 49 49 48 48 48 48 48 48 47 47 46 46 46 45 45 45 46 48 49 51
37 38 38 39 39 40 40 41 41 41 42 42 42 43 43 43 44 44 44 44 44 45 45 45 45 45 45 45 44 43 43 42 42 41 41 41 41 41 41 41 42 42 42 42 42 42 42 42 42 42 42 42 42 42 41 41 41 41 41 41 41 40 39 39 39 40 41 42 44 45 46 47 47 48 50 51 52 53 53 53 53 52 52 51 51 50 50 50 50 49 49 48 48 47 47 46 46 45 45 46 48 49 51
38 39 39 40 40 41 41 42 42 42 43 43 43 44 44 44 44 44 44 44 44 45 45 45 45 45 45 45 45 44 44 43 43 42 42 42 41 41 41 42 42 42 42 43 43 43 43 43 43 43 43 43 43 42 42 42 42 42 42 42 42 41 41 40 40 39 40 41 42 44 45 46 47 48 49 51 52 53 54 54 54 54 53 53 52 51 51 51 50 50 50 49 49 48 48 47 47 46 46 46 47 49 51
39 40 40 41 41 42 42 42 43 43 43 44 44 44 44 44 44 44 44 44 44 44 45 45 45 45 45 45 45 45 45 44 44 43 43 43 42 42 42 42 42 43 43 43 43 44 44 44 44 44 43 43 43 43 43 43 43 43 43 43 43 43 42 42 41 40 40 40 40 42 43 45 46 47 48 50 51 53 54 55 55 55 54 54 53 52 52 52 51 50 50 50 49 49 48 48 47 47 47 47 48 49 51
40 40 41 42 42 42 43 43 43 44 44 44 44 44 44 44 44 44 44 44 44 44 44 45 45 45 45 45 45 45 45 45 45 44 44 44 43 43 43 42 42 43 43 43 44 44 44 44 44 44 44 44 44 44 44 44 43 43 44 44 44 44 44 43 42 41 41 40 40 41 42 43 45 47 48 49 51 52 53 55 55 55 55 55 54 53 53 52 52 51 50 50 49 49 49 48 48 48 48 48 48 49 50
41 41 42 42 43 43 43 44 44 44 44 44 44 44 44 44 44 44 44 44 44 44 44 44 45 45 45 45 45 45 45 46 45 45 45 45 44 44 44 43 43 43 43 44 44 45 45 45 45 45 45 45 45 45 45 45 44 44 44 45 45 45 45 45 44 43 42 41 41 40 41 42 43 45 47 48 50 51 53 54 55 55 55 55 55 54 53 53 52 52 51 51 50 49 48 48 48 48 48 49 49 49 51
42 42 42 43 43 43 44 44 44 44 44 44 44 44 44 44 44 44 44 44 44 44 44 44 45 45 45 45 45 45 45 46 46 46 46 46 45 45 45 45 44 44 44 44 44 45 45 46 46 46 46 46 46 46 46 46 45 45 45 45 46 46 46 46 46 45 44 43 42 41 41 41 42 43 45 47 48 50 52 53 55 56 56 56 55 55 54 53 53 53 52 52 51 49 48 48 48 49 49 50 49 49 51
42 42 43 43 43 43 44 44 44 44 44 44 44 44 44 44 44 44 44 44 44 44 44 44 45 45 45 45 45 45 45 46 46 46 46 46 46 46 46 46 46 45 45 45 45 45 45 46 46 47 47 47 47 47 47 47 47 46 46 46 46 46 47 47 47 46 45 45 44 43 42 41 41 42 44 46 47 49 51 53 54 56 56 56 56 55 54 54 54 54 53 53 52 50 49 48 48 49 50 50 49 49 50
42 43 43 43 43 43 43 44 44 44 44 44 44 44 44 44 44 44 44 44 44 44 44 44 45 45 45 45 45 45 46 46 46 46 47 47 47 47 47 47 47 47 47 46 46 45 46 46 47 47 48 48 48 48 48 48 48 48 47 47 46 47 47 48 48 47 47 46 45 44 43 42 42 42 42 44 46 48 49 51 53 55 56 56 56 56 55 55 55 55 54 54 53 51 50 49 50 50 51 50 49 49 50
42 43 43 43 43 43 43 43 44 44 44 44 44 44 44 44 44 43 43 44 44 44 44 44 45 45 45 45 46 46 46 46 46 47 47 47 47 48 48 48 48 48 48 48 47 47 46 46 47 47 48 49 49 49 49 49 49 49 49 48 47 47 47 48 48 48 48 47 47 46 45 44 43 42 42 43 45 46 48 50 52 54 55 56 56 56 55 55 56 55 55 54 53 51 50 50 51 51 51 50 49 50 50
42 42 42 43 43 43 43 43 43 43 44 44 44 43 43 43 43 43 43 43 43 44 44 44 45 45 45 45 46 46 46 47 47 47 47 48 48 48 49 49 49 49 49 49 49 48 48 48 47 48 48 49 50 50 50 51 51 50 50 49 49 48 48 48 48 49 49 49 48 47 46 45 44 43 42 43 44 45 47 49 51 53 54 55 55 55 55 55 56 56 55 55 54 52 51 51 52 52 51 51 51 52 52
42 42 42 42 42 43 43 43 43 43 43 43 43 43 43 43 43 43 43 43 43 44 44 44 45 45 45 46 46 47 47 47 48 48 48 48 49 49 49 49 50 50 50 50 50 50 49 49 49 49 49 49 50 51 51 52 52 52 51 51 50 50 49 49 49 49 49 49 49 48 48 47 46 44 43 43 43 44 46 47 49 51 53 54 55 55 55 55 55 55 56 55 54 53 52 52 52 53 53 54 55 55 55
41 41 41 42 42 42 43 43 43 43 43 43 43 43 43 43 43 43 43 43 43 44 44 44 45 45 46 46 47 47 47 48 48 49 49 49 49 49 50 50 50 50 51 51 51 51 51 51 50 50 50 50 50 51 52 52 53 53 53 52 52 51 50 49 49 49 49 50 50 49 49 48 47 46 45 44 44 44 45 46 48 50 52 53 54 54 55 55 55 55 56 56 55 53 53 52 52 53 53 55 56 56 55
40 41 41 41 42 42 42 42 43 42 42 42 42 42 42 43 43 43 43 43 43 44 44 45 45 46 46 47 47 48 48 48 49 49 49 50 50 50 50 50 51 51 51 51 52 52 52 52 52 52 51 51 51 51 52 53 53 54 54 54 53 53 52 51 50 50 50 50 50 50 50 49 48 47 46 45 44 44 44 46 47 49 51 52 53 54 55 56 56 56 56 55 54 53 52 52 52 52 52 53 52 51 50
40 40 40 41 41 41 42 42 42 42 42 42 42 42 42 43 43 43 43 44 44 44 45 45 46 46 47 47 48 48 48 49 49 50 50 50 50 50 51 51 51 51 51 52 52 52 53 53 53 53 53 53 53 52 53 53 54 54 55 55 55 54 53 53 51 51 50 50 50 51 51 50 49 49 47 46 45 45 45 46 47 48 50 51 53 54 54 56 57 57 56 54 54 53 52 52 52 52 51 49 46 43 42
39 40 40 40 41 41 41 41 42 42 42 42 42 42 42 43 43 43 44 44 44 45 45 46 46 46 47 47 48 48 48 49 49 50 50 50 50 50 51 51 51 51 52 52 53 53 53 54 54 54 54 54 54 54 54 54 55 55 55 56 56 55 55 54 53 52 51 51 51 51 51 51 51 50 49 48 47 46 46 46 47 48 49 50 52 53 54 56 57 57 55 54 53 52 52 53 53 53 52 49 44 40 38
39 39 40 40 40 41 41 41 41 41 42 42 42 42 43 43 43 44 44 44 45 45 46 46 46 47 47 47 48 48 48 49 49 49 50 50 50 50 50 51 51 51 52 52 53 53 54 54 55 55 55 56 56 55 55 55 56 56 56 56 57 57 56 56 55 54 53 52 52 52 52 52 51 51 50 49 48 47 47 47 48 48 49 50 51 53 54 56 57 57 56 54 53 53 53 55 55 55 56 55 51 46 42
39 39 39 40 40 40 40 41 41 41 42 42 42 42 43 43 44 44 44 45 45 45 46 46 46 47 47 47 47 47 47 48 48 48 49 49 49 49 50 50 50 51 51 52 53 53 54 55 56 56 56 57 57 57 57 57 57 57 57 57 57 57 57 57 57 56 55 54 53 53 53 53 52 52 51 50 49 49 48 48 48 48 49 49 51 52 54 56 57 58 57 55 54 54 55 56 57 57 58 58 58 54 49
38 39 39 39 40 40 40 40 41 41 42 42 42 43 43 43 44 44 45 45 45 45 46 46 46 46 46 46 46 46 46 46 46 47 47 48 48 49 49 50 50 51 51 52 53 53 54 55 56 57 57 58 58 58 58 58 58 58 58 58 58 58 58 58 58 57 56 55 54 54 53 53 53 53 52 51 51 50 50 49 49 49 49 50 50 52 53 55 56 57 57 56 56 56 56 58 58 58 57 58 57 55 51
38 39 39 39 40 40 40 40 41 41 42 42 42 43 43 43 44 44 44 45 45 45 45 45 45 45 45 45 45 45 45 45 45 45 46 46 47 48 48 49 50 51 51 52 53 53 54 55 56 57 58 58 59 59 59 59 59 59 59 59 59 59 59 59 59 59 58 57 56 55 55 54 54 54 53 52 52 52 51 50 50 50 50 50 51 51 52 54 55 56 56 56 57 57 58 59 59 57 56 56 55 52 49
38 38 39 39 39 40 40 40 41 41 41 42 42 43 43 43 43 44 44 44 45 45 45 44 44 44 44 43 43 43 43 43 43 44 45 46 47 47 48 49 50 51 52 53 54 54 55 56 57 57 58 59 60 60 60 60 60 60 60 61 61 61 60 60 60 60 60 59 58 57 56 55 55 54 54 53 53 53 52 52 51 51 51 51 51 52 52 53 54 55 55 55 56 57 58 59 59 57 55 54 52 50 48
38 38 38 39 39 39 40 40 41 41 41 42 42 42 42 43 43 43 44 44 44 44 44 43 43 42 42 42 42 42 42 42 43 44 45 46 47 48 49 50 51 52 53 54 55 56 56 57 58 59 59 60 61 61 62 62 62 62 62 62 62 62 62 62 61 61 61 60 60 59 58 57 56 55 55 54 54 54 53 53 52 52 52 52 52 52 52 52 53 53 54 54 55 56 57 59 58 57 54 52 51 49 48
38 38 38 39 39 39 40 40 40 41 41 41 41 41 42 42 42 43 43 43 43 43 43 42 42 41 41 41 41 41 42 42 43 44 46 47 48 49 51 52 53 53 54 55 56 57 58 59 60 61 61 62 62 63 63 63 63 63 63 63 63 63 63 63 63 62 62 62 61 60 59 58 57 56 56 55 55 54 54 54 53 53 53 53 53 53 53 52 52 52 52 53 54 56 57 58 58 56 54 52 50 49 48
37 38 38 38 38 39 39 39 40 40 40 40 40 41 41 42 42 42 42 42 42 42 41 41 41 40 40 41 41 42 43 44 45 46 48 49 51 52 53 54 54 55 56 56 57 58 59 60 61 62 63 64 64 65 65 65 65 65 65 65 65 65 65 64 64 64 63 63 62 62 61 60 59 58 57 57 56 56 55 55 54 54 54 54 54 54 53 52 52 51 52 52 53 55 56 57 57 56 54 52 51 50 49
37 37 37 38 38 38 39 39 39 39 39 40 40 40 41 41 41 41 41 41 41 41 40 40 40 40 41 41 42 43 45 46 47 49 51 52 53 54 55 56 56 57 57 58 58 59 59 60 61 62 63 65 65 66 67 67 67 67 67 67 67 67 66 66 66 65 65 64 64 63 62 61 60 59 58 58 57 57 56 56 55 55 55 55 55 55 54 53 52 51 51 51 52 53 55 56 56 55 54 53 51 51 50
36 37 37 37 37 38 38 38 38 39 39 39 39 40 40 40 40 40 40 40 40 40 40 40 40 41 42 43 44 45 47 48 50 51 53 54 55 56 57 58 58 58 59 59 59 60 60 61 62 62 63 65 66 67 68 68 69 69 69 69 69 69 68 68 67 67 67 66 65 65 64 63 62 61 60 59 58 58 57 57 56 56 56 56 55 55 55 53 52 51 51 51 52 53 53 54 55 55 55 53 52 51 50
36 36 36 36 37 37 37 37 38 38 38 38 39 39 39 39 39 39 39 39 39 39 39 40 41 42 43 44 46 47 49 50 52 53 54 56 57 58 58 59 59 59 60 60 60 61 61 62 62 63 64 64 65 66 67 68 69 70 71 71 71 71 70 70 69 69 68 68 67 66 65 64 63 62 61 61 60 59 59 58 57 57 56 56 56 56 55 54 52 51 51 51 51 52 52 52 53 53 53 53 53 52 52
35 35 36 36 36 36 36 37 37 37 38 38 38 38 38 38 38 38 38 38 38 39 39 40 41 42 44 46 47 49 50 52 53 54 56 57 58 58 59 60 60 60 60 60 61 61 61 62 63 63 64 65 65 66 66 67 69 70 71 72 73 73 72 72 72 71 70 70 69 68 67 66 65 64 63 62 61 61 60 59 58 58 57 57 56 56 56 55 53 52 51 51 51 51 51 51 50 50 51 53 54 53 53
35 35 35 35 36 36 36 36 36 37 37 37 37 37 37 36 36 36 37 37 38 38 39 40 41 43 44 46 48 49 51 52 54 55 56 57 58 59 59 60 60 60 60 61 61 61 61 62 63 63 64 65 66 66 66 67 68 69 70 72 73 74 74 74 74 73 72 72 71 70 69 68 67 66 65 64 63 62 61 60 59 59 58 58 57 57 56 55 54 52 51 51 51 51 50 49 47 46 49 54 55 54 53
34 34 35 35 35 35 36 36 36 36 36 36 36 36 36 35 35 36 36 37 37 38 40 41 42 43 45 46 48 50 52 53 55 56 57 58 58 59 59 59 60 60 60 61 61 61 62 62 63 63 64 65 66 66 67 67 67 68 69 70 72 73 74 75 75 75 74 74 73 72 71 70 69 68 67 65 64 63 63 62 61 60 59 58 58 57 57 56 55 53 52 51 51 51 50 49 47 48 51 56 56 54 54
33 34 34 34 35 35 35 35 35 35 35 35 35 35 35 35 35 35 36 36 37 38 40 41 42 44 45 47 49 51 52 54 55 56 57 57 58 58 58 59 59 60 61 61 62 63 63 64 64 64 65 65 65 66 67 67 67 68 68 69 70 72 73 75 76 76 76 76 75 74 73 72 71 70 69 67 66 65 64 63 62 61 60 59 59 58 58 57 55 54 53 52 52 51 50 50 50 52 55 56 55 54 54
33 34 34 34 34 34 35 35 35 35 34 34 34 34 34 35 35 35 36 37 38 39 40 42 43 45 46 48 50 52 53 54 55 56 56 57 57 57 58 59 60 61 62 63 64 65 66 66 66 66 66 66 66 67 67 67 68 68 69 69 69 70 72 73 75 76 77 77 77 76 76 75 73 72 71 69 68 67 65 64 63 62 61 60 59 59 58 57 56 55 54 53 53 52 51 51 51 52 54 54 54 54 54
33 33 34 34 34 34 34 34 34 34 34 34 34 34 34 34 35 35 36 37 38 39 41 42 44 46 48 50 51 53 54 55 55 55 55 56 56 57 59 60 62 64 65 67 68 69 70 70 70 70 70 69 69 69 69 69 69 69 69 69 69 70 70 72 73 75 76 77 78 78 77 76 75 74 73 71 70 68 67 65 64 63 62 61 60 59 59 58 57 56 55 54 53 53 52 51 51 51 51 51 52 53 53
33 33 33 33 33 33 33 33 33 33 33 33 33 34 34 35 35 36 37 38 39 40 41 43 45 47 49 51 52 53 54 54 54 54 54 55 56 58 60 62 64 66 68 69 71 72 73 74 74 75 74 74 73 73 72 72 71 71 70 70 70 70 70 71 72 73 75 76 77 78 78 78 77 76 75 73 72 70 69 67 66 64 63 62 61 60 59 59 58 57 56 55 54 53 52 51 50 50 50 50 51 51 51
33 33 33 33 33 33 33 32 32 32 33 33 33 33 34 35 35 36 37 38 39 41 42 44 46 48 49 51 52 53 53 53 53 53 54 54 56 57 59 60 62 63 64 65 67 69 71 73 75 76 77 77 77 77 76 75 75 74 73 72 72 71 71 71 71 72 73 74 76 77 77 78 78 77 77 75 74 72 70 69 67 66 65 63 62 61 60 60 59 58 57 55 54 53 53 51 50 50 49 49 50 50 50
33 33 33 33 33 32 32 32 32 32 32 33 33 33 34 35 36 37 37 38 40 41 43 44 46 48 49 50 51 51 51 51 52 52 52 53 53 53 52 51 50 50 50 51 52 54 57 60 64 68 72 75 77 78 78 78 77 77 76 75 74 73 72 72 72 72 72 73 74 75 76 77 78 78 77 76 75 74 72 70 69 67 66 64 63 62 61 60 60 59 57 56 55 54 53 52 50 50 49 49 49 49 49
32 32 32 32 32 32 32 32 32 32 32 33 33 34 34 35 36 37 38 39 40 42 43 45 47 48 49 49 50 50 50 50 50 49 48 46 44 42 40 38 38 38 39 40 41 42 43 44 47 51 56 62 67 71 75 77 78 78 78 77 76 75 74 73 73 73 73 73 73 73 74 75 76 77 77 77 76 75 74 72 70 68 67 65 64 63 62 61 60 59 58 57 55 54 53 52 51 50 50 49 49 49 48
32 32 32 32 32 32 31 31 32 32 32 33 33 34 35 35 36 37 38 39 40 42 43 45 47 48 48 48 48 49 49 48 46 44 41 37 34 33 32 33 34 36 38 39 40 40 40 39 39 38 40 43 49 56 63 68 73 76 78 78 77 76 76 75 75 74 74 73 73 73 73 74 75 76 76 77 76 76 74 73 71 70 68 66 65 64 63 62 61 60 59 57 55 54 53 52 51 51 50 49 48 48 49
31 31 31 31 31 31 31 31 31 32 32 33 33 34 35 35 36 37 38 39 41 42 44 45 46 47 47 47 47 47 45 43 39 36 33 31 30 31 32 34 36 37 39 40 40 41 41 41 39 37 35 34 36 39 45 53 60 67 73 76 77 77 77 76 76 75 75 74 73 73 73 73 73 74 75 75 75 75 75 74 72 71 69 67 66 65 64 63 62 60 59 57 56 54 53 52 52 51 50 48 48 49 50
31 31 31 31 31 31 31 31 31 31 32 32 33 34 35 35 36 37 38 39 41 42 44 45 45 45 45 45 45 43 40 36 33 30 29 30 31 33 35 37 37 37 38 38 39 40 41 42 41 39 37 35 33 32 33 37 43 51 60 68 73 76 78 78 78 77 76 75 74 73 73 72 72 73 73 74 74 74 74 73 73 71 70 68 66 65 64 64 62 61 59 58 56 54 53 52 52 51 50 48 48 49 50
30 31 31 31 30 30 30 31 31 31 32 32 33 33 34 35 36 37 38 39 41 42 43 44 44 44 44 43 41 37 33 30 29 28 29 31 33 35 36 37 37 37 37 37 37 38 39 40 41 40 39 38 36 33 31 31 32 35 42 51 61 69 75 77 78 78 77 76 75 74 73 73 72 72 71 72 72 72 72 73 72 72 70 69 67 65 64 64 63 61 60 58 56 55 53 53 52 51 50 48 48 48 49
30 30 30 30 30 30 30 30 31 31 32 32 33 33 34 35 36 37 38 39 40 42 43 43 43 42 42 40 36 31 28 27 27 29 30 31 33 35 36 37 38 38 39 38 38 37 37 38 39 39 40 40 39 37 34 32 30 29 31 36 44 55 64 72 76 78 78 77 76 75 74 73 72 71 71 70 70 70 71 71 71 71 71 69 68 66 65 64 63 62 60 59 57 55 54 53 52 51 50 48 47 47 48
30 30 30 30 30 30 30 30 31 31 31 32 33 33 34 35 36 37 38 39 40 41 42 42 42 41 39 36 31 27 26 26 27 28 30 31 33 35 37 39 41 42 41 41 40 39 39 39 39 38 39 40 41 39 37 35 32 30 30 30 34 41 50 60 69 74 77 77 77 75 75 74 73 71 70 69 69 69 69 69 70 70 70 69 68 67 66 65 63 62 60 59 57 56 54 53 52 51 50 49 48 47 47
30 30 30 30 30 30 30 30 30 31 31 32 32 33 34 35 36 36 38 39 40 41 41 41 40 39 36 32 27 25 25 26 27 28 29 31 33 37 40 43 44 45 44 43 42 42 41 41 40 39 38 39 40 40 38 36 34 33 32 31 32 34 39 48 58 66 72 76 77 76 75 75 73 72 70 69 68 67 67 67 68 69 69 69 68 67 66 65 64 62 60 59 58 57 55 54 52 51 50 49 48 47 47
30 30 30 30 30 30 30 30 30 31 31 32 32 33 34 34 35 36 37 38 40 40 41 40 39 37 34 29 25 24 25 26 27 28 29 31 34 38 42 46 48 49 48 45 43 42 42 42 42 40 38 38 38 38 37 36 34 33 33 32 32 33 34 39 47 57 65 71 75 76 76 75 74 72 71 69 67 66 66 66 66 67 68 68 67 66 65 65 64 62 61 59 58 57 56 54 53 52 51 49 48 48 47
30 30 30 30 30 30 30 30 31 31 31 32 32 33 33 34 35 36 37 38 39 40 40 39 38 36 32 27 25 24 25 25 26 27 29 32 35 39 43 47 50 51 49 46 43 41 41 41 41 41 39 36 35 35 35 34 33 31 30 31 32 33 33 35 40 48 57 66 72 75 76 76 75 73 71 69 67 66 65 64 64 65 66 66 66 66 65 64 63 62 61 60 58 57 56 54 53 52 51 49 49 48 47
30 30 30 30 30 30 30 30 31 31 31 32 32 33 33 34 35 35 37 38 39 39 39 38 37 35 31 27 25 24 25 26 26 28 30 33 36 39 43 46 49 50 48 45 41 39 39 39 40 39 37 34 32 31 32 33 32 29 27 27 29 31 33 34 36 42 51 60 68 73 75 76 75 73 71 69 67 65 64 63 63 63 64 65 65 65 64 63 63 61 60 59 58 57 56 54 53 52 51 49 49 48 47
30 30 30 30 30 30 30 31 31 31 31 31 32 33 33 34 34 35 36 37 38 39 38 37 36 34 31 27 25 25 26 27 28 29 31 34 37 40 43 46 48 48 46 44 40 38 37 38 39 38 36 33 30 28 28 30 30 28 26 24 24 27 30 32 34 38 46 55 63 69 73 74 74 72 70 68 66 64 63 62 61 62 62 63 63 64 64 62 61 60 59 58 57 57 56 54 53 52 51 50 49 48 47
30 30 30 30 30 30 31 31 31 31 31 31 32 32 33 33 34 35 36 37 38 38 38 37 36 34 31 28 26 26 27 28 30 31 33 35 38 41 43 46 47 46 45 43 40 37 36 36 37 37 36 33 30 28 26 26 27 27 27 26 24 23 25 28 31 35 41 50 58 65 70 72 72 71 69 67 65 63 62 61 60 60 60 61 62 63 63 62 60 58 58 57 57 56 56 54 53 52 51 50 49 48 48
Wind_Direction
278 278 279 279 279 279 279 279 279 280 280 282 283 284 286 287 288 289 289 289 289 288 287 286 285 283 282 280 279 277 276 275 275 274 274 274 274 274 273 272 271 269 268 267 266 266 265 265 264 263 263 262 261 260 259 258 257 256 256 255 255 255 254 254 253 253 252 252 251 250 250 250 251 251 252 252 252 251 251 250 248 247 246 247 247 247 247 248 248 248 249 249 249 248 248 247 248 248 249 249 250 250 249
278 279 279 279 279 279 280 280 280 280 280 281 282 283 284 285 286 287 288 289 289 289 288 288 287 285 284 283 281 279 278 276 275 274 274 274 274 274 273 272 271 270 269 268 267 266 266 265 264 264 263 263 262 261 260 259 258 257 256 255 255 254 254 254 253 253 253 252 252 251 250 250 250 251 252 252 252 252 252 251 249 248 247 247 247 248 248 248 248 248 248 248 248 248 247 247 247 247 248 249 249 249 249
278 279 279 280 280 280 280 281 281 281 281 282 282 283 283 284 285 286 286 287 288 288 288 288 288 287 286 285 283 282 280 278 277 275 274 274 274 273 273 273 272 271 270 269 268 267 266 266 265 264 264 263 263 262 261 260 259 258 257 256 255 254 253 253 253 253 253 252 252 252 251 250 250 251 251 252 252 253 252 251 250 249 248 248 248 248 248 248 248 248 248 248 248 247 247 246 246 246 247 248 248 249 249
278 278 279 280 280 280 281 281 282 282 282 283 283 283 283 283 284 284 285 286 286 287 287 288 288 288 287 286 285 284 282 280 279 277 275 274 273 273 273 273 272 271 270 269 268 268 267 266 266 265 264 264 263 262 261 261 260 259 258 256 255 254 253 252 252 252 252 252 251 251 251 250 250 250 251 252 252 252 252 252 251 249 248 248 248 248 248 248 248 248 248 248 247 247 246 245 245 245 246 247 248 248 248
277 278 279 279 280 280 281 282 282 283 283 283 284 284 284 284 284 284 284 284 285 286 286 287 287 287 287 287 286 285 284 282 281 279 277 275 273 273 272 272 272 271 270 269 268 268 267 267 266 266 265 264 263 263 262 261 260 259 258 257 256 255 253 252 252 251 251 251 251 250 250 251 250 250 251 251 252 252 252 251 251 250 249 248 248 248 248 248 248 248 248 248 247 247 246 245 245 245 246 247 248 248 248
277 277 278 279 279 280 281 282 282 283 283 284 284 285 285 285 285 284 284 284 284 284 285 285 286 286 286 286 286 285 285 283 282 281 279 277 275 273 272 271 271 271 270 270 269 268 267 267 266 266 265 265 264 263 262 261 261 260 259 258 257 255 254 253 251 251 250 250 250 250 250 250 250 251 251 251 251 252 252 251 251 250 249 249 249 248 248 248 248 248 248 248 247 247 246 245 245 245 246 247 247 248 247
276 277 278 278 279 280 280 281 282 283 283 284 284 285 285 285 285 285 285 284 284 284 284 284 285 285 285 286 285 285 285 284 283 282 280 279 277 275 273 272 271 271 270 270 269 268 267 266 266 266 265 265 265 264 263 262 261 261 260 259 257 256 255 253 252 250 250 250 250 249 249 249 250 250 250 251 251 251 251 251 250 250 250 249 249 249 248 248 248 248 248 248 247 247 246 246 245 246 246 247 247 247 247
276 277 277 278 278 279 280 281 282 282 283 284 284 285 285 286 286 286 285 285 284 284 283 283 283 284 284 284 285 285 284 284 283 283 281 280 279 277 275 273 271 270 270 270 269 268 267 266 265 265 265 265 264 264 263 263 262 261 260 259 258 257 256 254 253 251 249 249 249 249 248 249 249 249 250 250 251 251 251 251 250 250 250 250 249 249 249 248 248 247 247 247 247 247 247 246 246 246 246 247 247 247 247
276 277 277 278 279 279 280 281 281 282 283 284 284 285 285 286 286 286 286 285 285 284 284 283 283 283 283 283 284 284 284 284 283 283 282 281 280 278 276 274 272 271 269 269 269 268 267 266 265 265 264 264 263 263 263 263 262 262 261 260 259 258 256 255 254 252 250 249 249 248 247 247 248 249 249 249 250 251 251 251 250 250 249 249 249 249 248 248 247 247 247 247 247 247 247 247 247 247 247 247 246 246 246
276 276 277 278 279 279 280 281 282 283 283 284 284 285 285 286 286 286 286 286 285 285 284 283 283 282 282 282 282 283 283 283 283 283 282 281 280 279 277 276 274 272 270 269 268 268 268 267 266 265 264 263 262 262 262 262 262 262 261 261 260 258 257 256 254 253 251 249 248 248 247 246 247 248 248 249 249 250 250 250 250 250 249 249 249 248 248 248 247 247 246 246 246 247 247 247 248 247 247 246 246 245 246
276 276 277 278 279 280 280 281 282 283 284 284 285 285 285 286 286 286 286 285 285 285 284 284 283 282 282 281 281 282 282 282 282 282 282 281 280 279 278 276 275 273 271 269 268 267 267 267 267 265 264 263 262 261 261 261 261 261 261 261 260 259 258 257 255 253 252 250 249 248 247 246 245 246 247 248 248 249 250 250 250 249 249 248 248 248 248 247 247 247 246 246 246 246 247 247 247 247 247 246 245 244 245
275 276 277 278 279 280 281 282 282 283 284 284 285 285 286 286 286 286 286 285 285 284 284 283 283 282 282 281 280 280 281 281 281 281 281 281 280 279 278 277 276 274 272 270 269 268 267 267 267 266 265 264 262 261 260 260 260 260 260 260 260 259 258 257 256 254 253 251 249 248 247 246 245 245 246 247 247 248 249 250 250 249 249 248 247 247 247 247 247 246 246 246 246 246 246 247 247 247 246 246 245 244 244
275 276 277 278 279 280 281 282 283 283 284 285 285 286 286 286 286 286 285 285 285 284 284 283 283 282 282 281 280 280 279 280 280 280 280 280 280 279 278 277 276 275 273 272 270 269 267 267 266 266 266 265 263 262 260 259 259 259 259 259 259 259 258 258 257 255 254 252 250 248 247 246 245 245 245 245 246 247 248 249 250 249 249 248 247 247 247 247 247 246 246 246 246 246 247 247 247 247 246 246 246 245 244
275 276 277 278 279 280 281 282 283 283 284 285 285 286 286 286 286 285 285 285 284 284 283 283 282 282 281 281 280 280 279 278 278 279 279 279 279 278 278 277 276 275 274 272 271 270 268 267 266 266 266 265 264 263 261 259 258 258 258 258 258 258 258 258 257 256 255 253 251 249 247 246 246 245 245 245 245 246 247 248 249 249 249 248 248 247 247 247 247 247 246 246 246 246 247 247 247 247 246 246 246 246 245
276 277 278 279 280 281 281 282 283 284 284 285 286 286 286 286 286 285 285 284 284 283 282 282 282 281 281 281 280 280 279 278 278 277 278 278 278 277 277 276 276 275 274 273 271 270 269 267 266 265 265 265 265 264 262 260 259 257 257 257 257 257 257 257 257 257 256 254 252 250 248 246 246 245 245 245 245 245 246 247 248 248 249 248 248 247 247 247 246 246 247 247 246 246 247 247 247 247 247 246 246 246 246
276 277 278 279 280 281 282 283 283 284 285 285 286 286 286 286 285 285 285 284 283 283 282 282 281 281 280 280 280 280 279 278 278 277 277 277 277 276 276 275 275 274 274 273 272 270 269 268 267 266 265 264 264 264 263 261 259 258 256 256 256 256 256 256 256 256 256 255 254 252 249 247 246 245 245 245 245 245 245 246 247 248 248 248 248 247 247 247 246 246 246 246 246 247 247 247 247 247 246 246 246 246 246
276 277 278 279 280 281 282 283 284 285 285 286 286 286 286 286 285 285 284 284 283 282 282 281 281 281 280 280 280 279 279 279 278 277 277 276 276 276 275 275 274 273 273 272 271 270 269 268 267 266 265 264 264 263 263 262 260 258 257 255 255 255 255 255 255 255 255 255 255 253 251 249 247 245 245 245 245 245 245 245 246 247 247 248 247 247 247 246 246 246 246 246 246 246 246 247 246 246 246 245 245 245 246
277 278 279 280 281 282 283 284 284 285 286 286 286 286 286 286 285 285 284 283 283 282 281 281 281 280 280 280 280 279 279 279 278 278 277 277 276 275 275 274 274 273 272 271 270 270 269 269 268 267 265 264 264 263 262 262 261 259 257 256 255 254 254 254 254 254 254 254 254 254 253 251 248 246 246 245 245 245 244 245 245 246 247 247 247 246 246 246 246 246 246 246 245 245 245 245 245 245 244 244 244 244 245
277 279 280 281 281 282 283 284 285 286 286 287 287 287 286 286 285 285 284 283 282 282 281 281 280 280 280 280 280 279 279 279 279 278 278 277 276 276 275 274 274 273 271 270 269 269 268 268 267 267 266 265 264 263 262 262 261 260 258 256 255 254 254 253 253 253 252 253 253 253 253 252 250 248 246 246 245 245 244 244 245 245 246 246 246 246 246 246 246 246 246 246 245 244 244 244 244 244 243 242 242 242 244
278 279 280 281 282 283 284 285 286 287 287 287 287 287 287 286 285 285 284 283 282 282 281 281 280 280 280 280 279 279 279 279 279 278 278 277 277 276 275 274 274 273 272 270 269 268 267 267 267 266 266 265 264 263 262 262 261 260 259 257 256 254 253 253 252 252 252 251 251 252 252 252 251 249 247 246 245 245 245 244 245 245 245 246 246 246 246 246 246 246 246 246 245 243 243 243 243 244 242 241 240 241 243
279 280 281 282 283 284 285 286 287 287 288 288 288 287 287 286 285 285 284 283 282 282 281 281 280 280 280 279 279 279 279 278 278 278 278 277 277 276 276 275 274 273 272 271 269 268 266 265 265 265 265 265 264 263 263 262 261 260 259 258 256 255 254 253 252 252 251 251 250 250 251 251 251 250 248 247 246 245 245 244 244 245 245 245 246 246 246 246 246 246 246 246 245 243 242 242 243 244 244 241 240 241 243
280 281 282 283 284 285 286 287 287 288 288 288 288 287 287 286 285 285 284 283 282 282 281 281 280 280 280 279 279 278 278 278 278 277 277 277 277 276 276 275 274 274 273 271 270 268 267 265 264 264 263 263 263 263 263 262 261 260 259 258 257 255 254 253 252 251 251 250 250 249 249 249 250 249 249 247 246 245 245 245 244 245 245 245 245 246 246 246 246 245 245 245 245 244 242 241 242 244 245 243 242 242 243
281 282 283 284 285 286 287 287 288 288 288 288 287 287 286 286 285 284 284 283 282 282 281 281 280 280 280 279 279 278 278 278 277 277 277 276 276 276 275 275 274 274 273 272 271 269 268 266 264 263 262 262 262 262 262 262 261 260 260 259 257 256 255 254 253 252 251 250 249 249 248 248 248 248 248 248 247 246 245 245 244 245 245 245 245 245 246 246 246 246 245 245 245 244 243 242 242 242 244 244 244 244 243
281 283 284 285 286 287 287 288 288 288 288 288 287 287 286 285 285 284 284 283 283 282 282 281 281 280 280 279 279 278 278 278 277 277 276 276 275 275 274 274 273 273 272 272 271 270 268 267 265 263 261 261 260 261 261 261 261 260 260 259 258 257 255 254 253 252 251 250 250 249 248 247 247 247 247 247 247 246 246 245 245 245 244 244 245 245 245 246 246 246 245 245 244 244 243 243 242 242 243 245 245 244 243
282 283 284 285 286 287 288 288 288 288 288 287 287 286 286 285 285 284 284 283 283 282 282 282 281 281 280 280 279 278 278 277 277 277 276 275 275 274 274 273 273 272 272 271 270 270 269 267 266 264 262 260 259 259 259 259 260 259 259 259 258 257 256 255 253 252 251 251 250 249 248 247 246 246 246 246 247 247 246 246 245 245 244 244 244 244 244 245 245 245 245 244 244 244 244 244 244 244 245 246 244 243 241
283 284 285 286 287 287 288 288 288 288 288 287 287 287 286 286 285 285 284 284 284 283 283 282 282 281 280 280 279 279 278 277 277 276 276 275 275 274 274 273 272 271 271 270 270 269 268 267 266 265 263 261 259 258 258 258 258 258 258 258 258 257 256 255 253 252 251 250 250 249 248 247 246 245 245 245 245 246 246 246 246 245 244 244 244 243 243 244 244 244 243 243 243 243 244 244 245 246 246 243 240 237 236
283 284 285 286 287 288 288 288 288 288 287 287 287 287 286 286 286 285 285 285 284 284 283 283 282 281 281 280 279 279 278 277 277 276 276 275 275 274 274 273 272 271 270 270 269 269 268 267 266 265 264 262 260 258 257 257 257 257 257 257 257 257 256 255 254 252 251 250 249 249 248 247 246 245 244 243 244 244 245 245 245 245 244 244 243 243 243 243 244 244 243 243 243 243 243 244 245 245 244 239 234 232 232
283 284 285 286 287 287 288 288 288 287 287 287 287 287 287 287 286 286 286 285 285 284 284 283 282 282 281 280 279 279 278 277 277 276 276 275 275 274 274 273 272 271 271 270 269 268 268 267 266 265 264 263 261 259 258 257 256 256 256 256 256 256 256 255 254 252 251 250 249 248 248 247 246 245 243 243 242 243 243 244 244 245 244 244 243 243 243 243 244 244 244 243 242 243 243 243 243 243 242 239 236 234 234
283 285 285 286 287 287 287 287 287 287 287 287 287 287 287 287 287 286 286 286 285 285 284 283 283 282 281 280 280 279 278 278 277 277 276 276 275 274 274 273 273 272 271 270 270 269 268 267 266 265 264 263 262 260 259 257 256 255 255 254 255 255 255 254 254 252 251 249 248 247 247 246 246 244 243 242 241 241 242 242 243 244 244 244 243 242 242 242 243 244 244 243 242 242 243 243 243 242 242 242 244 244 244
284 285 285 286 287 287 287 287 287 287 287 287 287 287 287 287 287 287 286 286 285 285 284 284 283 283 282 281 281 280 279 279 278 278 277 276 276 275 274 274 273 272 272 271 270 269 268 267 266 265 264 263 262 261 260 258 257 255 254 254 253 253 253 253 253 252 251 250 248 247 246 246 245 244 243 241 240 240 240 241 242 244 244 244 244 243 242 242 243 244 244 243 242 242 242 243 243 242 242 244 248 251 251
284 285 285 286 286 287 287 287 287 287 288 288 288 288 287 287 287 287 287 286 286 286 285 285 284 284 283 282 282 281 280 280 279 279 278 278 277 276 275 275 274 273 272 271 270 269 269 268 267 266 265 264 263 261 260 259 258 256 255 254 253 252 252 252 252 252 251 250 248 247 245 245 244 244 243 241 240 239 239 240 241 242 244 244 244 244 243 243 243 243 244 244 243 242 242 243 243 243 242 245 249 252 253
284 285 285 286 286 287 287 287 287 287 288 288 288 288 288 288 288 287 287 287 287 287 286 286 285 284 284 283 283 282 281 281 280 280 279 279 278 278 277 276 275 274 273 272 271 270 268 268 267 266 265 264 263 262 260 259 258 257 256 254 253 252 251 251 251 251 250 249 248 247 245 244 244 243 242 241 240 239 238 238 239 241 242 243 244 244 244 243 243 243 243 243 243 243 243 244 244 244 244 245 248 250 251
284 285 285 286 286 287 287 287 287 288 288 288 288 288 288 288 288 289 288 288 288 288 287 287 286 285 284 284 283 282 282 281 281 281 281 281 280 280 279 278 277 276 275 274 272 271 269 268 266 265 265 264 263 262 261 259 258 257 256 255 254 252 251 250 250 250 249 249 248 247 245 244 243 242 242 241 239 238 238 237 238 239 241 242 243 244 244 244 244 243 243 242 242 243 243 244 245 245 244 245 246 247 247
284 285 285 286 286 287 287 287 288 288 288 288 288 289 289 289 290 290 290 289 289 289 288 287 286 285 284 284 283 283 282 282 282 283 283 283 283 282 282 281 280 279 277 276 274 273 271 269 267 266 264 263 262 261 260 259 258 257 256 255 254 253 251 250 249 249 248 248 247 246 245 244 242 242 241 240 239 238 237 237 237 238 239 241 242 243 244 244 244 243 243 242 242 242 243 244 245 245 244 244 244 244 245
284 285 286 286 286 287 287 288 288 288 288 288 289 290 290 291 291 291 291 290 290 289 288 287 286 285 284 283 283 283 283 284 284 284 285 285 285 284 284 283 282 280 279 277 276 274 273 271 269 267 265 263 262 260 260 259 258 257 256 255 254 253 251 250 249 248 248 247 246 246 245 243 242 241 240 240 239 238 237 236 236 237 238 240 241 242 243 244 244 243 243 242 242 242 242 243 243 244 243 242 242 242 243
285 285 286 286 287 287 287 288 288 288 289 289 290 291 291 291 292 291 291 290 290 289 288 287 285 284 284 283 283 284 284 285 286 286 286 287 287 286 285 284 283 281 280 278 276 275 273 272 270 268 266 264 262 260 259 258 257 256 255 254 253 252 251 250 249 248 247 246 246 245 244 243 242 240 239 239 239 238 237 236 236 236 237 238 240 241 242 243 243 243 243 243 242 242 242 242 242 242 242 241 240 240 241
285 285 286 286 287 287 288 288 289 289 290 291 291 292 292 292 292 292 292 291 290 289 288 287 286 285 284 284 285 285 286 286 287 288 288 288 288 288 287 286 284 283 281 279 277 275 273 272 270 269 267 265 263 261 259 258 256 255 254 253 253 252 251 250 249 248 247 246 245 244 244 243 242 240 239 238 238 238 237 236 235 235 236 237 239 240 241 242 242 243 243 243 242 242 242 242 242 242 241 240 239 239 240
285 286 286 287 287 288 289 289 290 290 291 292 292 293 293 294 294 293 293 292 291 290 289 288 287 286 286 286 286 287 287 288 289 289 290 290 290 289 288 287 286 284 282 280 278 276 274 272 271 269 267 266 264 262 260 258 256 255 254 253 252 251 250 249 249 247 246 245 244 244 243 242 241 240 239 238 237 237 237 236 235 235 235 236 238 239 240 241 241 242 242 242 242 242 242 242 242 241 241 240 238 238 238
286 286 287 287 288 289 290 290 291 292 292 293 294 294 295 295 295 295 294 293 292 291 289 288 288 288 288 288 288 288 289 289 290 290 291 291 291 290 289 288 287 285 284 282 280 278 276 274 272 270 268 266 265 263 261 259 257 255 254 252 251 250 250 249 248 247 246 245 244 243 242 242 241 240 239 237 236 236 236 235 235 235 235 236 237 238 239 240 240 241 242 242 242 243 243 242 242 242 242 241 239 237 237
286 287 288 288 289 290 291 291 292 293 294 294 295 295 296 296 296 296 295 294 293 292 290 290 289 289 289 290 290 290 290 291 291 291 291 291 291 291 290 289 288 286 285 283 281 279 277 275 273 271 269 267 265 263 262 260 258 256 254 252 251 250 249 248 248 247 246 245 244 243 242 241 240 239 238 237 236 235 235 235 234 234 234 235 236 237 238 239 240 240 241 241 242 242 243 242 242 243 244 243 240 237 236
287 288 289 290 291 291 292 293 293 294 294 295 296 297 297 297 297 297 296 295 294 293 292 291 291 291 291 291 292 292 292 292 292 293 293 292 292 291 291 289 288 287 285 283 281 279 277 275 273 271 270 268 266 264 262 260 258 256 254 252 251 249 248 248 247 246 245 245 244 242 241 240 239 239 238 237 236 235 234 234 234 233 233 234 235 236 237 238 239 239 240 240 241 242 242 241 240 241 243 244 242 239 236
289 290 291 292 292 293 293 294 294 294 295 296 297 298 299 299 298 298 297 296 295 294 294 293 293 293 293 293 294 294 294 294 294 295 294 294 293 293 292 290 289 287 285 283 281 279 277 275 273 271 269 268 266 265 263 261 259 257 255 253 251 249 248 247 246 245 245 244 243 242 241 240 239 238 237 236 235 234 233 233 233 233 233 233 234 235 236 237 238 238 239 239 240 241 241 240 238 236 238 241 241 239 237
291 292 293 293 294 294 294 294 295 296 297 298 299 300 300 300 300 299 299 298 297 297 296 296 295 295 295 296 296 297 297 297 297 297 296 296 295 294 293 291 290 288 286 284 281 279 277 274 272 270 268 267 265 264 263 261 260 258 255 253 251 249 248 246 245 244 244 243 243 242 241 240 239 238 237 236 235 234 233 232 232 232 232 232 233 234 235 236 237 237 238 239 239 240 240 240 238 237 237 240 240 240 238
293 294 294 295 295 295 295 295 296 297 298 300 300 301 302 302 301 301 300 299 299 299 299 298 298 298 299 299 300 300 300 300 300 299 299 298 297 296 295 293 291 289 286 284 282 279 277 274 272 270 268 266 264 263 262 261 259 258 256 254 252 249 248 246 245 244 243 242 241 241 240 240 239 238 237 236 235 233 232 231 231 231 231 231 232 233 234 235 235 236 237 237 238 239 240 240 239 239 240 240 240 240 238
294 295 295 295 295 295 296 296 298 299 300 301 302 303 303 303 303 302 302 301 301 301 301 301 301 302 302 303 303 303 303 303 302 302 301 301 300 298 297 295 293 290 288 286 283 281 278 276 273 270 268 266 264 262 260 259 258 257 256 254 252 250 248 246 244 243 242 241 240 240 239 239 238 237 236 235 234 233 232 231 230 230 230 230 231 231 232 234 234 235 235 236 237 238 239 239 240 240 241 241 240 240 239
296 296 296 296 296 296 297 298 299 300 302 302 303 304 304 304 304 303 303 303 303 303 304 304 304 305 305 306 306 306 305 305 305 304 304 303 302 301 299 297 295 292 290 288 285 283 280 277 274 272 269 267 264 262 260 258 257 255 254 253 252 250 248 246 244 243 241 240 239 239 238 238 237 236 236 235 234 233 232 231 230 229 229 229 229 230 231 232 233 234 234 235 236 237 238 239 240 240 240 240 240 239 238
297 297 297 297 297 298 298 299 300 302 303 303 304 304 305 305 305 305 305 305 305 305 306 307 308 308 308 308 308 308 308 308 308 308 307 306 305 303 302 300 298 297 294 292 289 286 283 279 276 273 270 267 265 262 260 258 256 255 253 252 251 249 248 246 245 243 241 240 239 238 237 237 236 236 235 234 233 232 232 230 229 228 228 228 228 229 230 231 232 233 234 234 235 236 238 239 240 240 240 239 239 238 238
298 299 299 298 299 299 299 300 302 303 303 304 305 305 306 306 306 306 306 307 307 308 308 309 310 311 311 311 311 311 311 311 311 310 310 309 308 307 308 308 308 307 306 304 301 297 292 287 282 277 273 269 266 263 261 259 257 255 253 252 250 249 247 246 244 243 241 240 238 237 236 236 235 235 234 233 233 232 231 230 229 228 227 227 227 227 229 230 231 232 233 233 234 235 237 238 239 239 239 239 238 238 237
299 299 299 299 300 300 301 302 303 303 304 305 306 306 307 307 307 308 308 308 309 309 310 311 312 313 314 314 314 313 313 313 314 313 313 314 315 317 320 324 327 329 329 328 325 320 314 307 299 290 282 276 271 266 263 260 257 255 253 251 250 248 246 245 244 242 241 239 238 237 236 235 234 234 233 232 232 231 230 230 229 228 226 226 226 226 227 228 229 230 231 232 233 234 236 237 237 238 239 239 238 237 236
300 300 300 300 301 301 302 303 304 304 305 306 307 307 308 308 309 309 309 310 310 311 312 313 314 315 316 317 316 316 316 317 317 318 320 323 327 332 338 342 345 345 344 342 340 337 334 329 322 313 302 291 281 273 267 263 259 256 254 252 250 248 246 244 243 241 240 239 237 236 235 234 233 233 232 232 231 230 229 229 228 227 226 225 225 225 226 227 228 229 230 231 232 233 234 235 236 237 238 238 237 236 235
301 301 301 302 302 303 303 304 305 306 306 307 308 309 309 310 310 310 311 311 312 313 314 316 317 317 318 319 319 319 320 321 324 326 331 336 340 343 345 346 347 347 345 343 340 338 337 335 331 326 319 310 299 288 278 270 263 259 255 252 250 248 246 244 242 240 239 238 236 235 234 233 233 232 231 231 230 229 229 228 228 227 226 225 224 224 225 226 227 228 229 230 231 232 233 234 236 237 237 237 237 236 235
301 302 302 303 303 304 305 306 306 307 308 309 309 310 311 311 311 311 312 312 313 314 316 318 319 320 320 321 322 323 325 328 332 336 340 343 344 345 345 344 343 342 341 339 336 334 334 332 330 327 322 318 312 305 296 285 274 266 259 254 251 248 246 244 241 239 238 236 235 234 233 233 232 231 231 230 229 228 228 227 227 226 225 224 223 223 224 225 226 227 228 229 230 231 232 233 235 236 237 237 237 237 236
302 303 303 304 305 306 306 307 308 308 309 310 311 312 312 312 312 312 313 314 315 316 318 320 321 323 323 323 325 327 331 336 340 343 344 345 345 344 344 343 341 339 337 336 333 332 330 330 328 325 321 317 314 311 308 302 293 282 270 260 253 249 246 244 241 239 237 235 234 233 232 232 231 230 230 229 228 227 227 226 226 225 225 224 223 222 223 224 225 226 226 227 228 229 230 232 234 236 237 237 238 237 237
303 304 304 305 306 307 308 308 309 310 311 312 312 313 313 313 313 314 314 315 317 319 321 322 323 324 326 326 328 333 338 342 344 344 344 345 345 346 345 345 342 339 336 334 331 330 329 329 327 324 321 318 315 312 309 307 303 297 287 273 261 252 247 243 241 239 236 234 232 231 231 230 230 229 228 228 227 226 226 225 225 225 224 223 222 222 222 223 224 224 225 226 227 228 229 230 233 235 237 237 238 238 238
304 305 306 307 308 308 309 310 311 311 312 313 314 314 315 315 315 315 316 317 319 321 323 324 325 326 327 329 332 338 342 345 345 344 344 345 348 349 349 348 346 342 338 334 330 328 328 329 330 328 324 322 318 314 311 307 304 299 294 285 273 260 250 244 240 238 235 233 231 229 229 228 228 227 227 226 226 225 225 224 224 224 223 223 222 221 221 222 223 223 224 225 226 227 227 229 231 234 236 237 238 238 238
305 306 307 308 309 309 310 311 312 313 314 315 316 316 316 316 316 316 317 319 321 323 325 326 327 328 329 331 335 340 343 344 344 344 344 347 349 351 351 350 347 343 339 335 331 329 329 330 332 332 330 326 322 318 315 312 306 300 294 287 280 270 258 248 241 236 233 231 229 227 226 226 226 225 225 225 224 224 223 223 223 222 222 222 221 221 221 221 222 222 223 224 225 226 227 228 230 233 235 237 237 237 238
306 307 308 308 309 310 311 312 313 315 316 317 317 317 317 317 317 317 318 320 323 325 326 327 328 329 330 332 335 340 342 341 342 343 345 347 349 350 350 349 347 345 342 338 334 332 331 332 332 333 334 331 327 323 320 317 312 305 296 288 282 275 266 254 243 236 231 228 226 225 224 223 223 223 223 223 222 222 222 222 221 221 221 221 220 220 220 221 221 222 222 223 224 225 226 227 229 231 234 235 237 237 237
307 308 309 309 310 311 312 313 315 316 317 318 319 319 318 318 318 319 320 322 324 326 328 328 329 330 330 331 333 337 338 338 339 341 343 345 346 347 347 346 346 345 343 341 339 337 335 334 333 333 334 332 329 326 324 323 320 313 303 291 282 275 268 259 248 237 230 226 223 222 221 221 221 220 220 220 220 220 220 220 220 220 220 220 219 219 219 220 220 221 221 221 223 224 225 227 228 230 232 234 236 237 237
308 308 309 310 311 312 313 314 316 317 319 320 320 320 319 319 319 320 322 324 326 328 329 329 330 330 329 329 330 332 333 333 335 336 338 340 341 342 343 343 343 343 342 341 340 339 339 337 335 332 331 330 328 326 324 324 326 325 317 303 287 276 268 261 251 240 230 224 221 219 218 218 218 218 218 218 218 218 218 218 218 218 218 218 218 218 218 219 219 219 220 220 221 223 224 226 227 229 231 233 236 238 238
308 309 310 311 312 313 314 315 317 318 320 321 321 321 320 320 320 321 323 325 327 329 330 330 330 330 329 327 326 326 327 328 329 331 333 333 335 337 339 340 342 342 341 339 338 338 340 339 336 332 327 325 324 324 323 321 325 331 334 324 306 286 272 262 253 242 232 224 219 216 215 215 215 215 215 215 215 216 216 216 217 217 217 217 217 217 217 217 218 218 218 219 220 222 223 225 226 227 229 232 235 237 239
309 310 311 311 312 313 315 316 318 319 321 322 322 321 321 321 321 322 324 327 329 330 331 331 331 331 329 326 323 322 322 322 324 325 327 327 329 332 335 338 340 341 341 339 337 336 338 339 336 331 325 320 319 320 322 320 322 329 338 339 330 310 284 266 254 243 233 224 218 214 212 212 212 212 213 213 213 214 214 214 215 215 216 216 216 216 216 216 217 217 218 218 219 221 222 223 225 226 228 230 233 236 237